Terminal Aerodrome Forecast
Issued by NWS

Home | Current Version | Previous Version | Text Only | Print | Product List | Glossary On
Versions: 1 2 3 4 5 6 7 8 9 10 11 12 13 14 15 16 17 18 19 20 21 22 23 24 25 26 27 28 29 30 31 32 33 34 35 36 37 38 39 40 41 42 43 44 45 46 47 48 49 50
000
FTUS46 KOTX 241140
TAFSFF
TAF
KSFF 241140Z 2412/2512 VRB03KT P6SM FEW008
     FM241400 VRB03KT P6SM BKN009
     FM241600 VRB03KT P6SM OVC008
     FM241900 17004KT P6SM BKN015 OVC100
     FM250300 19003KT 6SM -RA OVC028
     FM250600 20007KT 5SM -RA BR OVC018=

USA.gov is the U.S. government's official web portal to all federal, state and local government web resources and services.